Location: Unspecified
(49.2170°N, 0.0000°E)
Time: 01:03:45
(UTC+00:00)

SR - Pass Details

Date: 29 January 2021
Orbit: 573 x 882 km, 66.7° (Epoch: 03 March)

Event Time Altitude Azimuth Distance (km) Brightness Sun altitude
Exits shadow 03:08:52 13° 49° (NE) 2,111 ? -42.9°
Drops below altitude 10° 03:09:27 10° 47° (NE) 2,322 ? -42.8°
Sets 03:12:05 0° 40° (NE) 3,305 ? -42.4°
